Weather History for Corlu, Turkey

Change the Weather History Date:

Tuesday, November 6, 2012

  Actual Average (LTBA) Record (LTBA)
Temperature  
Mean Temperature 64 °F -  
Max Temperature 69 °F 59 °F 73 °F (2013)
Min Temperature 59 °F 49 °F 44 °F (2006)
Degree Days  
Heating Degree Days 1    
Growing Degree Days 14 (Base 50)    
Moisture  
Dew Point 60 °F    
Average Humidity 88    
Maximum Humidity 100    
Minimum Humidity 68    
Precipitation  
Precipitation 0.00 in - - ()
Sea Level Pressure  
Sea Level Pressure 29.89 in    
Wind  
Wind Speed 8 mph ()    
Max Wind Speed 16 mph    
Max Gust Speed -    
Visibility 6.1 miles    
Events Rain    
Averages and records for this station are not official NWS values.
T = Trace of Precipitation, MM = Missing Value Source: Averaged Metar Reports

Daily Weather History Graph

Daily Weather History Graph

Search for Another Location

Airport:

Trip Planner

Search our weather history database for the weather conditions in past years. The results will help you decide how hot, cold, wet, or windy it might be!

Date:

Astronomy

Nov. 06, 2012 Rise Set
Actual Time 6:45 AM EET 4:57 PM EET
Civil Twilight 6:16 AM EET 5:26 PM EET
Nautical Twilight 5:43 AM EET 5:59 PM EET
Astronomical Twilight 5:11 AM EET 6:31 PM EET
Moon 11:17 PM EET (11/6) 12:27 PM EET (11/6)
Length of Visible Light 11h 10m
Length of Day
10h 12m
Waning Gibbous, 56% of the Moon is Illuminated
Nov 6
Waning Gibbous
Nov 7
Last Quarter
Nov 14
New
Nov 20
First Quarter
Nov 28
Full

Hourly Weather History & Observations

Time (EET) Temp. Dew Point Humidity Pressure Visibility Wind Dir Wind Speed Gust Speed Precip Events Conditions
12:20 AM 60.8 °F 59.0 °F 94% 29.86 in - SSW 9.2 mph - N/A   Clear
12:50 AM 60.8 °F 59.0 °F 94% 29.86 in - SSW 9.2 mph - N/A   Clear
1:20 AM 60.8 °F 59.0 °F 94% 29.83 in - SSW 10.4 mph - N/A   Clear
1:50 AM 60.8 °F 59.0 °F 94% 29.83 in - South 11.5 mph - N/A   Clear
2:20 AM 60.8 °F 57.2 °F 88% 29.83 in - South 6.9 mph - N/A   Clear
2:50 AM 60.8 °F 57.2 °F 88% 29.80 in - South 10.4 mph - N/A   Clear
3:20 AM 59.0 °F 57.2 °F 94% 29.83 in - South 4.6 mph - N/A   Clear
3:50 AM 60.8 °F 59.0 °F 94% 29.83 in - South 6.9 mph - N/A   Clear
4:20 AM 62.6 °F 59.0 °F 88% 29.83 in 6.2 mi SSW 12.7 mph - N/A   Scattered Clouds
4:50 AM 62.6 °F 59.0 °F 88% 29.83 in 6.2 mi SW 9.2 mph - N/A   Scattered Clouds
5:20 AM 60.8 °F 59.0 °F 94% 29.83 in 6.2 mi WSW 5.8 mph - N/A   Scattered Clouds
5:50 AM 60.8 °F 59.0 °F 94% 29.83 in 5.0 mi SSW 4.6 mph - N/A Rain Light Rain Showers
6:20 AM 60.8 °F 59.0 °F 94% 29.83 in 6.2 mi South 4.6 mph - N/A Rain Light Rain Showers
6:50 AM 60.8 °F 59.0 °F 94% 29.86 in 6.2 mi Variable 2.3 mph - N/A Rain Light Rain Showers
7:20 AM 60.8 °F 59.0 °F 94% 29.86 in 6.2 mi South 4.6 mph - N/A Rain Light Rain Showers
7:50 AM 62.6 °F 59.0 °F 88% 29.86 in 6.2 mi South 6.9 mph - N/A Rain Light Rain Showers
8:20 AM 62.6 °F 60.8 °F 94% 29.86 in 6.2 mi SSW 8.1 mph - N/A   Mostly Cloudy
8:50 AM 64.4 °F 60.8 °F 88% 29.86 in 6.2 mi SSW 11.5 mph - N/A   Mostly Cloudy
9:20 AM 68.0 °F 60.8 °F 78% 29.89 in 6.2 mi SSW 12.7 mph - N/A   Scattered Clouds
9:50 AM 66.2 °F 60.8 °F 83% 29.89 in 6.2 mi SSW 12.7 mph - N/A   Mostly Cloudy
10:20 AM 66.2 °F 60.8 °F 83% 29.89 in 6.2 mi SSW 12.7 mph - N/A   Mostly Cloudy
10:50 AM 68.0 °F 60.8 °F 78% 29.89 in 6.2 mi SSW 11.5 mph - N/A   Mostly Cloudy
11:20 AM 69.8 °F 60.8 °F 73% 29.89 in 6.2 mi SSW 11.5 mph - N/A   Mostly Cloudy
11:50 AM 69.8 °F 59.0 °F 68% 29.89 in 6.2 mi SSW 12.7 mph - N/A   Mostly Cloudy
12:20 PM 68.0 °F 60.8 °F 78% 29.89 in 6.2 mi SSW 10.4 mph - N/A   Mostly Cloudy
12:50 PM 69.8 °F 60.8 °F 73% 29.89 in 6.2 mi SSW 6.9 mph - N/A   Mostly Cloudy
1:20 PM 69.8 °F 60.8 °F 73% 29.89 in 6.2 mi SSW 5.8 mph - N/A   Mostly Cloudy
1:50 PM 68.0 °F 60.8 °F 78% 29.89 in 6.2 mi SSW 8.1 mph - N/A   Mostly Cloudy
2:20 PM 68.0 °F 59.0 °F 73% 29.89 in 6.2 mi SSW 4.6 mph - N/A   Mostly Cloudy
2:50 PM 68.0 °F 60.8 °F 78% 29.89 in 6.2 mi SW 3.5 mph - N/A   Mostly Cloudy
3:20 PM 68.0 °F 60.8 °F 78% 29.89 in 6.2 mi Variable 1.2 mph - N/A   Mostly Cloudy
3:50 PM 66.2 °F 62.6 °F 88% 29.89 in 6.2 mi Variable 3.5 mph - N/A   Mostly Cloudy
4:20 PM 66.2 °F 60.8 °F 83% 29.89 in 6.2 mi Variable 3.5 mph - N/A   Mostly Cloudy
4:50 PM 66.2 °F 60.8 °F 83% 29.92 in 6.2 mi NNE 3.5 mph - N/A   Mostly Cloudy
5:20 PM 64.4 °F 60.8 °F 88% 29.92 in 6.2 mi NE 4.6 mph - N/A   Mostly Cloudy
5:50 PM 64.4 °F 60.8 °F 88% 29.92 in 6.2 mi North 5.8 mph - N/A   Mostly Cloudy
6:20 PM 64.4 °F 60.8 °F 88% 29.92 in 5.0 mi NNE 5.8 mph - N/A Rain Light Rain Showers
6:50 PM 64.4 °F 62.6 °F 94% 29.92 in 6.2 mi North 4.6 mph - N/A   Mostly Cloudy
7:20 PM 64.4 °F 62.6 °F 94% 29.95 in 6.2 mi NNW 4.6 mph - N/A   Mostly Cloudy
7:50 PM 64.4 °F 62.6 °F 94% 29.95 in 6.2 mi NW 5.8 mph - N/A   Mostly Cloudy
8:20 PM 64.4 °F 62.6 °F 94% 29.95 in 6.2 mi NW 5.8 mph - N/A   Mostly Cloudy
8:50 PM 64.4 °F 62.6 °F 94% 29.95 in 6.2 mi NNE 11.5 mph - N/A   Mostly Cloudy
9:20 PM 62.6 °F 60.8 °F 94% 29.95 in 6.2 mi NE 12.7 mph - N/A   Mostly Cloudy
9:50 PM 60.8 °F 59.0 °F 94% 29.95 in 6.2 mi NE 13.8 mph - N/A   Mostly Cloudy
10:20 PM 60.8 °F 59.0 °F 94% 29.95 in 6.2 mi NE 15.0 mph - N/A Rain Light Rain
10:50 PM 60.8 °F 59.0 °F 94% 29.98 in 5.0 mi NE 16.1 mph - N/A Rain Light Rain
11:20 PM 59.0 °F 59.0 °F 100% 29.98 in 5.0 mi NE 15.0 mph - N/A Rain Light Rain
11:50 PM 60.8 °F 59.0 °F 94% 29.98 in 6.2 mi NE 12.7 mph - N/A   Mostly Cloudy